Weather in Tirunelveli

India     8°43′23″N   77°41′21″E
temp.,
°C
wind,
m/s
gust,
m/s
humid.,
%
clouds,
%
prec.,
mm/h
press.,
hPa
HPBL,
m
24 july, sat
sat2423:30+29w4858100 0.0 1008800
02:30+28w4861100 0.0 1006745
05:30+28wsw3562100 0.0 1007446
08:30+28wsw4660100 0.0 1009601
11:30+29wsw5854100 0.0 1009844
14:30+33w7104183 0.0 10061892
17:30+31w81149100 0.0 10061308
20:30+28w6115999 0.0 1008875
25 july, sun
sun2523:30+28w51061100 0.0 1009635
02:30+27w61064100 0.0 1007566
05:30+27w596691 0.0 1007501
08:30+29w61054100 0.0 1009737
11:30+34wnw793987 0.0 10081356
14:30+35wnw793791 0.0 10061745
17:30+33w8943100 0.0 10061324
20:30+29w7115782 0.0 1008730
26 july, mon
mon2623:30+28w61059100 0.0 1009616
02:30+28w596299 0.0 1007574
05:30+27wnw486760 0.0 1007451
08:30+29w68545 0.0 1009796
11:30+34wnw783989 0.0 10091551
14:30+35wnw893898 0.0 10061907
17:30+32w794748 0.0 10061197
20:30+29w7105899 0.0 1008646
27 july, tue
tue2723:30+28w71160100 0.0 1008571
02:30+28w61063100 0.0 1007587
05:30+27w5966100 0.0 1007535
08:30+29w71151100 0.0 1008811
11:30+32wnw81042100 0.0 10081210
14:30+31w71048100 0.0 10061265
17:30+30w71050100 0.0 10061146
20:30+28w61159100 0.0 1008816
28 july, wed
wed2823:30+27w596299 0.0 1009593
02:30+27w51064100 0.0 1007670
05:30+27w51064100 0.0 1007676
08:30+28w61056100 0.0 1009873
11:30+33w81239100 0.0 10081685
14:30+34wnw81137100 0.0 10062024
17:30+31w8124499 0.0 10071537
20:30+28w7125598 0.0 10091077